Location: Franzen
(48.6167°N, 15.3833°E)
Time: 10:14:02
(UTC+00:00)

Meteor 1-25 Rocket - Pass Details

Date: 22 April 2021
Orbit: 837 x 891 km, 81.2° (Epoch: 16 May)

Event Time Altitude Azimuth Distance (km) Brightness Sun altitude
Rises 21:28:03 0° 349° (N) 3,458 8.6 -25.8°
Reaches altitude 10° 21:30:29 10° 351° (N) 2,525 7.6 -26.0°
Maximum altitude 21:36:14 73° 77° (ENE) 920 4.2 -26.3°
Enters shadow 21:36:42 69° 114° (ESE) 940 4.2 -26.3°
